CAPE
1 0 2 2 1 1 0 0 0 0 0 0 0 4 5 1 10 2 0 9 12 21 15 28 17 6 18 12 12 17 14 17 33 27 36 23 61 60 53 19 1 0 0 0 0 0 0 2 117 14 41 144 217 277
1 0 2 1 1 0 0 0 0 0 0 0 1 5 2 0 11 2 1 0 25 9 9 6 0 3 26 17 33 64 90 65 91 37 15 58 80 57 51 32 36 0 0 0 0 0 30 116 239 343 184 159 205 380
1 0 2 1 1 0 0 0 0 0 0 0 0 1 6 3 7 0 0 1 10 23 4 11 2 5 24 32 48 6 5 0 14 0 3 4 14 143 90 46 56 36 18 0 0 0 0 50 208 239 260 233 721 939
1 0 1 1 1 0 0 0 0 0 0 0 0 0 2 1 3 2 0 0 0 6 3 2 10 8 8 13 32 39 31 10 29 6 4 6 13 14 120 61 3 0 12 16 34 13 51 134 82 437 546 701 886 1347
1 1 1 0 1 1 0 0 0 0 0 0 0 0 0 0 1 8 1 0 0 3 3 4 0 1 19 22 28 33 35 22 18 20 13 5 3 60 109 67 26 32 17 80 106 200 189 140 393 622 568 510 1010 1129
1 0 1 0 2 1 0 0 0 0 0 0 0 0 0 0 1 2 4 0 0 2 3 1 0 0 20 13 16 17 48 45 26 17 24 14 10 4 13 74 179 151 68 60 71 111 158 143 287 330 462 740 904 830
1 1 1 0 1 1 0 0 0 0 0 0 0 0 0 0 2 0 1 0 2 2 0 2 10 14 1 8 22 20 25 34 22 17 17 7 12 8 24 18 173 41 2 11 9 31 107 134 157 307 607 494 366 355
2 0 1 1 1 1 0 0 0 0 0 0 0 0 0 0 0 9 0 0 7 6 2 2 2 8 44 24 13 22 28 25 36 18 25 16 17 11 16 3 25 43 9 0 0 3 109 193 330 555 462 154 67 41
1 1 0 0 1 1 0 0 0 0 0 0 0 0 1 5 24 12 0 0 18 0 3 8 4 7 6 8 7 10 6 7 7 6 11 8 10 4 0 4 51 23 5 0 0 0 13 333 276 267 73 10 0 0
2 2 0 1 1 0 0 0 0 0 0 0 0 7 15 6 0 0 0 0 3 4 5 1 1 1 1 10 3 1 11 5 5 2 0 4 2 0 0 0 0 0 0 0 9 38 91 252 207 111 32 1 0 2
2 2 1 1 1 0 0 0 0 0 0 0 1 9 3 0 3 3 2 1 1 2 2 0 4 5 1 1 4 0 1 3 2 1 7 2 2 7 5 1 0 0 3 7 34 169 233 357 210 62 42 42 15 25
2 1 1 1 1 0 0 0 0 0 0 0 0 1 1 0 1 4 28 12 4 1 9 14 9 8 14 1 3 1 4 1 1 4 2 3 20 24 28 13 0 18 25 22 118 281 313 151 162 200 182 76 12 1
1 1 1 0 0 0 0 0 0 0 0 1 1 2 16 26 3 5 0 19 34 37 22 17 5 0 11 10 8 4 4 3 4 4 2 9 10 7 39 1 0 5 38 64 85 32 137 176 293 242 61 0 0 1
0 1 1 0 0 0 0 0 0 0 0 1 72 2 7 28 21 10 5 19 38 22 6 2 7 4 12 8 15 4 2 1 3 0 4 5 1 3 6 5 2 6 4 4 57 18 58 110 77 14 0 0 0 0
0 0 0 0 0 0 0 0 0 0 3 69 86 10 21 3 10 5 12 16 15 18 8 8 50 12 51 21 29 20 28 9 1 2 3 4 0 3 5 6 4 28 31 37 54 58 61 34 2 0 1 0 0 0
0 0 0 0 0 0 0 0 0 0 88 81 37 21 19 8 4 5 13 21 7 2 11 12 9 37 17 2 30 3 6 1 1 4 3 2 6 5 6 11 10 38 66 47 52 44 40 34 33 49 20 10 3 0
0 0 0 0 0 0 0 0 6 157 18 29 20 11 2 13 13 5 4 3 0 21 26 8 41 37 3 18 7 2 0 1 2 3 1 6 8 1 1 18 38 50 65 73 77 90 100 92 64 52 42 24 5 5
0 0 0 0 0 0 0 6 104 52 15 21 8 18 8 15 49 71 138 146 18 4 3 8 0 7 0 10 7 3 14 2 0 1 1 6 17 14 18 21 27 39 38 50 77 74 45 20 14 19 35 31 41 37
0 0 0 0 0 0 4 92 60 17 8 2 0 2 17 77 164 247 236 179 59 0 0 1 1 7 9 5 5 9 8 12 12 1 0 0 2 1 0 0 2 2 2 2 0 8 16 9 8 2 3 9 20 45
0 0 0 0 0 0 0 48 33 41 15 19 0 0 82 140 188 197 189 158 93 11 21 9 4 3 2 4 11 17 21 31 14 11 0 1 0 0 0 0 0 0 0 0 0 0 0 0 0 1 14 18 35 33
0 0 0 0 0 0 30 68 34 40 28 13 20 40 81 170 145 135 127 145 90 13 10 13 7 5 4 9 12 19 1 14 9 23 8 1 2 1 1 0 0 0 5 3 0 0 2 0 0 0 0 0 0 0
0 0 0 0 5 17 0 127 92 169 84 77 104 143 108 107 43 73 83 33 43 13 0 1 10 12 12 20 14 8 1 1 3 9 1 1 1 2 0 2 7 8 17 21 23 13 2 0 0 0 0 0 0 1
0 0 6 3 9 0 0 0 82 92 73 55 17 35 104 91 68 2 30 42 33 0 0 4 6 8 16 22 25 0 0 2 1 6 1 0 0 0 0 9 27 24 15 15 11 17 10 0 0 0 0 0 18 22
0 3 9 5 5 0 8 116 110 163 139 67 13 0 34 70 7 23 36 48 6 0 0 3 7 8 8 11 4 4 0 0 2 3 0 0 9 13 3 1 15 31 28 24 25 19 18 11 0 21 3 21 6 10
0 0 0 0 0 4 80 115 155 121 102 55 42 40 127 24 29 25 26 25 0 0 0 0 9 20 23 19 16 9 32 30 33 24 20 18 32 40 37 29 26 22 29 46 40 32 25 20 12 20 28 24 24 21
0 0 0 10 155 106 97 41 27 54 85 58 48 53 144 80 66 38 26 0 0 0 0 0 0 2 3 12 15 14 19 30 51 60 51 57 70 69 48 45 35 28 28 53 77 78 81 92 82 85 79 71 18 51
0 0 0 0 27 39 61 42 37 55 43 54 52 52 47 39 26 46 10 0 0 0 0 0 0 10 6 12 19 18 18 25 72 93 73 57 52 49 73 63 45 61 25 45 80 48 34 30 48 86 139 152 137 132
0 0 4 262 180 205 211 192 84 16 61 69 50 31 14 10 26 84 9 0 0 0 0 0 0 30 39 52 57 64 70 72 99 109 84 61 4 13 72 95 101 0 77 80 95 61 20 9 30 69 129 168 201 203
0 0 0 28 153 260 259 150 36 36 53 45 42 18 8 0 0 0 0 0 0 0 0 0 3 16 37 48 54 52 55 63 56 46 29 27 26 0 37 52 20 25 81 58 0 8 62 67 90 130 180 205 240 221
0 0 21 137 70 14 32 37 28 33 27 42 39 7 0 0 0 0 0 0 0 0 0 0 1 1 17 22 25 15 7 5 31 34 21 12 0 0 0 0 4 30 55 25 9 1 0 2 10 81 128 166 176 160
1 18 63 139 87 147 179 56 21 7 0 2 17 5 4 0 0 0 0 0 0 0 0 0 0 2 9 17 20 20 12 3 5 6 1 0 0 0 0 0 0 0 22 31 30 25 25 21 37 68 116 172 202 132
7 68 83 31 44 77 24 8 0 0 1 5 8 0 0 0 0 0 0 0 0 0 0 0 4 8 3 6 4 2 1 8 0 0 0 0 0 0 0 5 0 0 1 4 4 16 12 22 24 26 49 60 92 115
16 12 7 7 26 40 47 4 0 2 2 7 25 5 4 5 5 0 0 0 0 0 0 0 0 3 12 8 3 0 0 1 0 0 0 0 0 0 0 4 8 12 9 15 11 4 0 0 2 5 21 38 47 64
CIN
0 0 0 0 0 0 0 0 0 0 0 0 0 0 -1 0 0 0 0 -1 -1 0 -1 -1 -1 -1 -1 -13 -4 -3 -3 -15 -16 -10 -2 -10 -4 -4 -4 -4 -5 -5 0 0 0 0 0 -28 -32 -8 -18 -72 -50 -44
0 0 0 -1 0 0 0 0 0 0 0 0 -1 -1 0 0 0 0 0 -1 -1 -3 0 -10 -1 -2 -1 -1 -1 -1 -1 -2 -2 -2 -2 -3 -7 -3 -4 -6 -6 -1 0 0 -3 0 -63 -31 -56 -93 -114 -74 -53 -31
0 0 0 0 0 0 0 0 0 0 0 0 0 -3 0 0 0 0 0 -2 -1 0 -1 -1 -2 -3 -2 -2 -2 0 -10 0 -6 0 -16 -14 -13 -3 -4 -4 -4 -5 -7 -6 0 0 0 -67 -65 -99 -86 -68 -41 -29
0 0 0 -1 0 0 0 0 0 0 0 0 0 0 0 0 0 0 0 0 -2 -1 0 -1 -1 -1 -2 -2 -3 -1 -3 -17 -2 -9 -4 -15 -2 -12 -3 -3 -39 -2 -5 -7 -4 -4 -4 -43 -41 -56 -84 -79 -71 -20
0 0 0 -1 0 0 0 0 0 0 0 0 0 0 0 0 0 0 0 0 0 -1 0 0 0 -14 -3 -2 -1 -1 -1 -1 -1 -1 -3 -1 -4 -2 -2 -3 -6 -4 -6 -6 -1 -4 -15 -9 -58 -53 -64 -78 -86 -46
-1 0 0 -1 0 0 0 0 0 0 0 0 0 0 0 0 0 0 0 0 0 0 0 0 0 -1 -1 -1 -1 -4 -1 -1 -1 -1 0 -1 -9 -2 -12 -2 -4 -4 -16 -48 -33 -12 -3 -3 -20 -34 -49 -53 -93 -94
0 0 0 0 0 0 0 0 0 0 0 0 0 0 0 0 -14 0 -2 0 0 0 -1 0 -1 -1 -1 -4 0 -2 -11 -1 -2 0 -1 -4 -2 -4 -20 -22 -2 -4 -79 -86 -74 -62 -25 -4 -8 -18 -29 -61 -156 -128
0 0 0 0 0 -1 0 0 0 0 0 0 0 0 0 0 0 -1 -1 0 -3 0 -2 0 0 -1 0 0 0 -1 0 0 0 -1 -2 -1 -5 -3 0 -57 -17 -28 -28 0 0 -31 -12 -3 -27 -16 -5 -53 -112 -125
0 -1 0 0 -1 0 0 0 0 0 0 0 0 0 -1 -1 0 0 0 0 0 0 -1 -2 0 0 -4 -1 -2 -1 -2 0 -3 -2 -4 -1 -1 -1 0 -78 -26 -22 -2 0 0 0 -16 -4 -32 -43 -51 -73 0 0
0 0 0 0 0 0 0 0 0 0 0 0 0 -1 -1 -1 -1 0 0 0 -1 0 -2 0 -1 0 -2 -1 0 0 0 -1 0 -1 0 -1 -1 0 -1 0 0 0 -10 0 -7 -7 -2 -1 -26 -43 -77 -83 -4 -146
0 0 0 0 0 0 0 0 0 0 0 0 0 0 0 0 0 0 -1 0 0 0 -1 -1 -1 -1 -3 0 0 0 0 0 0 0 0 0 0 -3 -2 -8 -1 -2 -8 -26 -11 -9 -7 -16 -54 -48 -23 -69 -105 -132
0 0 0 0 0 0 0 0 0 0 0 0 0 0 0 0 -1 -1 -1 -4 -1 0 -3 0 -1 0 0 -8 -1 -1 0 0 0 0 0 -2 0 -2 -6 -19 -1 -11 -22 -7 -4 -19 -17 -33 -2 -27 -40 -88 -120 -65
0 0 0 0 0 0 0 0 0 0 0 0 0 0 -2 -4 -3 -8 -2 -1 -1 -1 -1 -1 -1 -4 -2 -2 -1 -1 0 0 -1 0 0 0 -1 -4 -9 -80 0 -91 -34 -16 -2 -3 -3 -5 -10 -28 -75 -2 0 -101
0 0 0 0 0 0 0 0 0 0 0 0 -1 -19 -2 0 -1 -1 -1 -1 -1 -1 -1 -1 0 -1 -1 0 -1 0 -1 0 0 0 0 -1 -2 0 -39 -133 -184 -113 -79 -17 -10 -10 -35 -68 -59 -95 0 0 0 -94
0 0 0 0 0 0 0 0 0 0 0 0 -2 -3 -1 -1 -1 -1 -2 -2 -2 -1 -2 -1 0 -1 -1 0 -1 0 0 -1 0 0 0 -3 0 0 0 -126 -171 -112 -86 -68 -58 -62 -68 -96 -104 -19 -47 0 0 0
0 0 0 0 0 0 0 0 0 0 -4 -8 -8 -1 -1 -2 -1 -1 -1 -1 -2 -2 -2 -1 -7 0 -1 0 0 -1 0 0 0 0 0 0 0 0 0 -125 -163 -147 -112 -113 -121 -132 -112 -97 -86 -83 -73 -51 -29 -1
0 0 0 0 0 0 0 0 -11 -2 -8 -1 -1 -1 -1 -1 -1 0 -2 -1 0 -30 -2 0 0 0 -2 -1 0 -1 0 0 0 0 0 0 0 0 0 -141 -124 -113 -112 -118 -113 -85 -70 -69 -64 -69 -55 -53 -36 -1
0 0 0 0 0 0 0 -9 -4 -4 -1 -1 -1 -1 -2 -7 -1 -1 -1 -2 -42 -5 -1 -1 -1 -5 0 -1 -1 -1 0 -1 0 0 0 0 0 0 0 0 -86 -84 -99 -97 -86 -74 -64 -57 -53 -62 -63 -45 -25 -14
0 0 0 0 0 0 -9 -3 -18 -2 -1 -1 0 -2 -10 -2 -4 -8 -6 -10 -19 0 0 -1 -1 0 -1 0 -1 0 -1 -1 0 0 0 0 0 0 0 0 0 0 0 0 0 -62 -46 -33 -2 -1 -2 -39 -15 -4
0 0 0 0 0 0 0 -3 -39 -5 -1 -3 0 0 -2 -2 -4 -7 -1 -4 -4 -1 -1 -1 -1 0 -1 -1 -1 0 0 -1 -2 -1 0 0 0 0 0 0 0 0 0 0 0 0 0 0 0 -1 -1 -3 -1 -2
0 0 0 0 -1 0 -7 -4 -3 -3 -1 -2 -2 -8 -2 -14 -9 -5 -1 -10 -1 -1 0 -1 -1 -1 0 0 0 0 -4 -1 -2 0 -3 0 0 0 0 0 0 0 -3 -6 0 0 -2 0 0 0 -8 0 -1 -1
0 0 -1 0 0 -2 0 -8 -8 -5 -4 -1 -5 -4 -6 -4 -8 -2 -15 -6 0 -3 0 -1 -1 0 -1 0 0 0 0 0 -4 -1 -13 0 0 0 -3 -5 -2 -1 0 -1 0 -1 -4 0 0 -13 -5 0 -4 -11
0 0 0 0 0 0 0 0 -1 -1 0 -3 -25 -13 -1 -11 -19 -25 -6 -4 -4 -1 0 0 0 0 0 0 0 0 0 -2 -17 -25 0 0 0 0 -5 -5 -3 -1 -4 -6 -3 -1 -2 -12 -15 0 0 0 -1 -2
0 -9 -2 -1 -1 0 -3 -1 -4 0 0 -4 -11 0 -4 -1 -8 -2 -2 -1 -4 0 0 0 -1 0 -1 0 -1 -2 -6 0 -5 -9 0 0 -1 -1 -8 -8 -2 -2 -2 -4 -4 -3 -2 -1 -4 -2 -5 -1 -5 -3
-1 0 0 0 0 -1 -1 -1 -2 -5 -4 -17 -22 -6 -2 -27 -14 -3 -2 -2 0 0 0 -1 0 0 -1 -1 -1 -1 -2 -2 -1 -1 -2 -2 -2 -1 -1 -1 -1 -2 -2 -2 -1 -2 -2 -2 -2 -2 -2 -2 -1 -1
0 0 0 -7 -3 -12 -9 -22 -25 -23 -19 -27 -17 -18 -8 -2 -1 -22 -2 0 0 0 0 0 0 -2 -1 -1 -1 -1 -3 -1 -1 -1 -2 -1 -1 -1 -2 -1 -1 -2 -2 -1 -1 -2 -1 -1 -1 -1 -1 -2 -20 -2
0 0 -1 0 -35 -31 -36 -52 -52 -42 -24 -16 -13 -4 -3 -3 -2 -14 -45 0 0 0 0 0 0 -1 -2 -1 -2 -2 -5 -12 -2 -1 -1 -2 -2 -3 -2 -1 -1 -2 -3 -1 -2 -1 -2 -1 -2 -1 -1 -2 -3 -3
0 0 -26 -3 -15 -13 -13 -9 -8 -6 -8 -11 -13 -1 -2 -2 -2 -5 -31 0 0 0 0 0 -1 -3 -3 -2 -2 -2 -3 -6 -7 -11 -10 -8 -19 -20 -7 -2 -5 0 -6 -1 -2 -2 -5 -9 -2 -2 -1 -1 -2 -3
0 0 0 -44 -23 -15 -19 -6 -2 -2 -6 -4 -1 -3 -4 0 0 0 0 0 0 0 0 0 -8 -10 -11 -12 -11 -5 -1 -1 -1 -1 -2 -4 -3 0 -12 -3 -6 -9 -6 -17 0 -2 -4 -12 -12 -3 -1 -2 -2 -2
0 0 -22 -12 -11 -7 -1 -11 -5 -12 -26 -21 -30 -36 0 0 0 0 0 0 0 0 0 0 -3 -2 -3 -2 -2 -5 -9 -4 -2 -4 -4 -3 -1 0 0 0 -3 -2 -2 -2 -5 -19 0 -20 -46 -11 -5 -1 -2 -2
-1 -11 -16 -13 -4 -1 -3 -24 -31 -56 0 -27 -47 -36 -13 0 0 0 0 0 0 0 0 0 -1 -3 -5 -3 -4 -4 -4 -7 -8 -6 -3 0 0 0 0 0 0 -1 -2 -2 -2 -2 -2 -4 -2 -2 -2 -1 -2 -5
-34 -21 -11 -30 -14 -10 -59 -43 0 0 -11 -30 -22 0 0 0 0 0 0 0 0 0 0 0 -3 -5 -3 -3 -2 -3 -1 -8 0 -1 0 0 0 0 0 -2 0 0 -2 -2 -3 -2 -2 -2 -2 -3 -2 -2 -2 -2
-32 -21 -22 -21 -23 -17 -19 -32 -2 -5 -7 -6 -17 -28 -29 -24 -15 -1 0 0 0 0 0 0 0 -3 -9 -5 -3 -1 0 -4 -1 0 0 0 0 0 0 -2 -2 -2 -4 -3 -4 -1 -1 -1 -2 -6 -1 -2 -1 -1
Wind_Speed
29 28 29 27 28 29 31 33 35 37 39 40 41 40 35 21 10 6 14 7 7 18 20 20 18 20 18 20 23 22 24 22 23 28 31 34 38 37 38 35 37 34 33 35 37 38 43 18 15 23 21 16 15 15
28 26 26 26 27 27 30 33 35 37 39 40 40 40 35 25 13 2 12 9 6 12 19 21 25 29 27 27 22 19 23 21 21 21 23 26 31 30 34 41 31 34 28 28 30 32 21 16 21 18 19 21 21 21
27 26 26 25 25 25 28 31 34 37 39 39 39 38 34 26 16 3 9 9 8 14 16 12 19 22 17 20 22 22 21 21 23 21 22 24 28 28 31 32 36 35 33 28 26 31 30 23 23 21 22 22 22 21
27 27 25 25 23 23 26 29 33 36 37 37 38 35 34 26 16 6 8 8 10 16 17 20 17 17 21 18 14 18 24 21 22 21 24 26 27 25 29 30 29 31 25 28 30 31 26 31 29 25 21 20 18 17
27 27 24 22 22 22 24 27 31 34 34 34 34 32 33 27 18 10 8 8 9 12 18 19 27 26 8 9 9 13 17 19 22 22 21 27 28 30 29 30 34 28 27 25 24 20 25 25 24 21 18 17 15 12
26 25 24 20 21 22 21 23 29 33 32 30 29 24 27 27 23 18 15 11 7 7 16 19 19 24 16 11 5 2 6 16 18 19 22 22 22 24 27 36 32 30 26 28 32 28 23 22 18 19 20 16 13 14
25 25 23 20 22 20 21 23 32 31 28 28 24 18 18 19 19 20 20 17 12 7 13 18 17 15 14 3 6 6 6 13 18 21 24 27 22 23 37 41 30 26 27 28 33 32 34 26 25 21 19 14 10 7
25 25 23 22 24 19 19 27 32 30 29 31 18 14 14 15 17 18 17 14 14 13 13 17 18 20 12 12 13 4 5 5 7 17 18 23 28 27 34 33 31 34 36 35 34 34 31 22 13 13 10 10 8 9
24 25 23 21 23 22 21 29 29 29 30 29 16 14 15 14 17 19 18 16 15 13 17 16 19 20 18 19 16 12 12 6 6 1 21 19 21 31 31 34 36 35 32 29 31 30 29 16 10 8 6 7 8 10
26 26 23 21 20 22 22 29 28 29 28 19 15 15 15 18 18 15 15 16 14 14 13 17 12 13 13 17 18 16 15 12 12 19 16 23 34 34 35 32 31 32 30 29 30 27 21 21 11 9 8 9 10 10
27 26 22 21 20 22 26 27 27 28 17 18 18 16 19 19 15 15 16 15 15 16 15 11 8 8 11 12 13 10 14 15 18 22 26 25 28 17 24 28 27 28 20 19 17 23 23 16 12 9 9 8 8 9
28 24 20 17 20 25 26 25 25 21 21 20 16 16 16 15 14 15 16 15 15 16 21 23 23 8 13 12 18 11 15 11 20 11 20 23 21 17 18 20 23 23 15 16 14 3 7 9 13 12 9 7 6 8
25 21 19 13 21 24 24 22 19 11 16 16 15 16 15 15 18 19 21 19 23 22 24 27 26 22 16 12 17 17 18 18 10 16 18 17 14 15 15 17 16 15 13 10 12 4 13 13 10 5 5 5 5 4
22 20 19 18 20 19 22 16 4 15 15 15 16 17 16 16 19 21 26 27 26 26 28 27 24 19 18 16 16 17 11 11 17 16 14 12 17 17 17 15 14 5 6 2 6 8 13 8 7 6 6 5 4 3
24 24 7 4 10 15 16 18 8 12 13 14 15 16 17 20 20 23 23 23 25 25 27 26 23 20 19 19 18 18 17 16 16 15 16 17 20 20 18 16 14 6 2 2 4 12 12 9 6 6 7 7 7 7
16 15 13 12 16 18 18 11 13 12 13 13 13 16 18 18 22 22 24 25 25 24 23 19 20 20 18 18 18 18 18 18 17 18 20 20 19 18 17 14 10 6 3 4 1 7 8 9 8 6 6 8 8 8
12 13 13 15 18 17 10 12 13 12 12 13 14 14 14 17 20 23 23 25 25 22 21 20 20 19 18 18 17 17 16 16 18 19 19 17 15 14 12 10 7 4 3 3 3 1 5 6 6 6 10 10 11 11
11 9 11 17 18 9 13 12 12 12 12 12 13 15 14 14 15 17 18 22 23 22 20 19 19 19 19 19 18 17 17 17 17 18 17 15 13 11 9 8 7 5 4 5 6 6 6 5 7 10 10 10 9 10
13 15 16 15 10 10 12 13 12 12 12 13 11 11 10 10 11 11 11 12 18 20 18 17 17 18 19 19 20 20 20 20 20 18 17 14 11 10 9 9 8 8 7 8 8 8 11 13 11 10 11 11 11 9
16 15 13 11 13 12 12 12 12 12 12 14 11 10 10 9 10 10 10 10 10 11 11 17 18 18 19 19 20 21 21 21 21 18 17 15 12 11 10 10 10 11 11 10 11 11 11 12 13 13 14 13 11 9
14 14 12 13 13 13 12 12 13 12 11 12 12 10 8 10 8 9 10 12 12 13 12 13 17 17 18 19 21 20 21 21 18 17 15 13 10 10 11 12 13 15 14 12 13 12 10 11 11 13 12 12 11 12
14 12 13 13 12 13 12 13 13 12 12 11 10 11 9 9 11 13 13 12 12 14 14 14 15 15 16 18 18 18 18 17 16 13 11 8 8 9 10 13 12 11 11 11 9 8 9 9 8 9 9 11 12 11
12 13 14 14 13 13 13 13 13 13 13 13 12 12 12 12 12 13 12 12 14 14 15 17 17 17 17 18 18 19 17 18 16 10 6 5 7 8 8 11 12 10 10 11 10 10 9 7 7 8 9 8 9 9
13 14 14 14 14 14 14 14 13 13 12 11 12 12 12 13 14 13 13 15 16 17 18 18 18 19 19 19 21 22 22 21 23 20 16 12 7 7 8 11 11 10 10 9 10 9 9 8 6 6 6 6 8 9
13 15 15 14 14 14 15 15 14 14 13 12 11 12 14 14 13 14 14 17 18 19 20 20 19 19 20 21 22 22 22 22 22 21 20 18 14 10 11 11 10 10 10 11 12 10 9 7 7 7 7 7 6 7
15 16 17 15 15 14 14 14 14 12 11 12 12 12 13 13 14 14 17 17 18 20 21 21 21 22 22 22 22 21 21 20 19 18 17 14 14 14 13 13 11 11 12 13 10 10 10 10 10 10 10 10 10 11
16 17 17 15 13 13 12 11 11 11 12 13 12 12 13 13 13 16 17 17 18 19 20 21 21 21 21 21 20 20 19 18 17 12 14 14 15 16 15 13 12 14 12 12 10 10 11 12 12 12 13 13 13 12
17 17 16 15 14 14 12 12 13 14 14 14 14 14 12 11 12 15 16 17 19 20 20 20 20 20 21 20 19 19 18 17 17 15 15 15 14 14 13 12 13 13 12 11 11 11 11 12 12 13 14 14 13 15
18 17 17 15 15 14 13 14 15 16 15 15 15 17 15 14 14 15 16 18 20 20 20 20 19 18 18 18 17 17 17 17 17 16 15 16 17 18 16 14 13 12 12 12 13 13 12 11 13 12 12 12 10 9
18 19 17 16 15 14 15 16 14 14 14 13 13 14 15 16 17 17 19 20 20 20 19 19 18 18 17 18 18 18 18 18 16 15 18 18 19 18 18 17 16 16 15 16 15 16 16 15 13 11 10 10 10 10
18 18 17 16 14 14 13 13 13 12 12 11 11 10 12 16 17 17 18 20 20 19 19 19 19 18 18 17 16 17 18 18 18 18 18 20 20 20 20 20 18 17 17 17 16 14 13 15 16 16 14 12 9 13
15 14 12 11 10 11 11 11 12 12 12 12 11 13 15 14 15 16 17 18 19 20 20 20 19 18 18 17 17 17 16 20 18 18 19 18 19 20 20 20 21 21 20 19 18 17 17 18 18 17 17 16 17 20
13 13 13 12 12 13 13 13 13 13 12 11 11 13 14 13 14 16 17 18 19 20 21 20 19 19 19 18 18 18 17 17 17 17 18 18 18 19 19 19 19 19 20 19 18 19 18 17 17 16 15 16 16 18
Wind_Direction
347 347 346 349 349 347 347 347 345 344 343 341 339 337 335 342 338 316 320 315 270 307 302 307 305 297 298 298 292 295 293 282 279 272 268 267 267 265 264 261 263 267 262 259 260 262 263 277 266 264 276 288 280 277
348 350 349 349 349 351 350 349 347 344 342 340 339 336 336 345 349 7 325 328 307 306 315 309 297 288 288 289 296 295 287 294 292 284 280 278 273 272 265 264 260 262 261 263 263 259 280 272 282 276 282 284 286 283
348 348 346 346 348 352 351 352 350 347 341 338 338 339 339 348 0 51 340 342 335 318 317 296 295 297 296 288 285 285 290 292 289 295 289 283 275 277 270 266 268 266 265 264 263 260 266 273 277 282 281 283 285 282
347 346 344 345 348 350 351 350 347 345 338 336 347 350 347 356 11 72 2 355 340 333 329 323 325 306 299 289 279 280 280 289 292 294 283 280 278 281 277 270 268 268 266 267 264 269 267 265 268 273 278 279 289 284
345 345 346 348 348 349 351 351 347 340 327 342 354 8 5 9 15 37 21 3 344 337 335 337 308 291 305 320 313 296 277 275 280 286 281 276 277 276 273 271 261 267 270 270 270 274 266 268 260 263 270 279 290 278
346 346 347 349 348 346 353 355 346 319 327 351 1 24 25 30 42 30 14 7 360 8 345 331 322 296 310 329 351 327 280 284 283 284 282 284 275 277 273 264 265 269 277 274 270 275 276 273 264 265 272 275 278 275
348 346 349 349 345 347 351 352 329 317 338 349 2 30 38 41 43 35 21 16 28 52 0 342 342 338 315 316 336 332 321 296 283 284 279 277 279 275 264 258 264 273 275 278 272 270 263 267 271 269 267 266 271 249
348 346 348 347 339 348 354 343 317 314 331 325 8 23 33 40 42 37 46 68 79 44 25 350 339 327 343 326 324 346 328 307 307 290 286 275 270 273 264 261 267 268 264 269 269 259 259 267 267 263 252 242 210 221
347 344 345 348 341 341 351 329 320 316 303 317 15 25 28 38 31 24 38 60 87 75 4 8 351 339 334 315 318 330 319 333 341 188 277 280 276 257 262 258 259 260 261 267 270 257 253 249 232 229 216 211 214 222
342 340 343 345 345 343 347 319 315 304 292 5 22 19 14 16 18 42 40 26 36 54 62 16 66 40 28 334 306 312 317 326 327 284 295 275 252 257 249 258 267 256 260 256 248 241 236 234 211 203 202 205 227 229
339 339 345 345 346 341 329 310 319 308 13 7 2 3 353 358 23 30 28 33 25 8 31 62 168 192 103 169 343 356 330 311 292 252 226 237 253 220 226 241 255 241 255 259 257 239 235 231 205 183 192 211 232 238
336 343 350 357 349 320 308 319 323 353 357 355 2 7 13 17 17 8 6 13 11 357 344 296 294 253 52 106 226 18 337 6 267 334 273 259 260 272 261 250 241 240 262 246 246 234 216 191 208 203 209 224 244 257
342 350 353 22 344 317 327 335 353 45 20 24 24 17 15 12 355 349 342 340 329 328 315 307 305 313 347 50 225 235 296 293 334 280 255 264 262 240 258 269 263 255 252 260 247 239 220 206 216 206 209 244 258 287
348 351 353 356 346 354 340 242 96 25 27 19 12 5 8 4 352 346 325 317 316 312 303 303 303 309 309 325 333 280 307 297 268 272 282 267 236 251 270 272 261 295 281 222 254 209 221 211 216 234 254 267 281 296
335 324 331 132 51 236 246 252 70 47 46 37 27 18 10 356 356 344 345 341 326 315 305 303 302 306 311 304 308 303 295 289 276 269 256 264 252 264 271 275 268 307 17 292 243 228 227 229 244 259 273 278 286 288
248 237 64 105 250 261 262 64 56 62 51 45 40 18 11 15 1 359 351 342 344 322 310 317 301 297 304 311 299 302 301 290 291 287 287 279 277 273 284 297 299 308 335 61 251 229 235 242 246 269 294 293 297 288
206 90 58 236 265 259 83 73 77 82 78 60 47 42 41 23 12 5 3 351 346 324 302 301 293 299 311 301 309 319 316 317 304 295 297 307 311 308 315 329 333 337 347 52 74 248 249 259 273 286 289 299 292 288
109 108 208 249 267 146 67 84 99 94 70 73 60 44 43 41 36 26 22 6 333 320 302 300 301 298 298 298 306 314 318 316 313 308 305 307 318 329 335 342 343 344 320 294 275 270 270 275 293 288 293 294 297 288
202 232 233 230 128 102 93 85 97 79 76 70 79 74 68 69 60 61 72 72 1 317 293 307 304 301 304 308 306 309 306 302 299 303 302 307 317 328 333 336 331 319 310 300 292 289 281 280 287 291 291 285 286 285
219 202 175 161 95 114 100 98 110 105 102 75 89 89 85 84 79 86 94 94 98 107 72 308 308 309 307 311 308 306 305 302 295 292 294 290 299 311 313 317 317 304 307 300 295 295 294 294 295 293 287 285 282 282
172 72 111 82 101 137 120 117 116 106 102 97 87 89 95 89 99 91 93 86 98 97 117 40 326 329 325 319 314 310 309 304 305 292 295 294 300 298 305 305 302 289 292 305 284 298 308 302 305 291 300 283 284 285
120 199 101 72 116 91 110 120 132 109 100 102 93 88 94 97 87 86 87 106 109 84 85 84 42 40 21 348 345 337 334 331 319 310 311 309 294 302 304 300 304 301 315 317 324 327 315 312 313 314 308 296 294 298
180 93 102 78 112 112 122 131 121 100 90 81 84 88 89 91 93 92 108 108 102 107 105 98 82 73 51 56 45 23 356 356 6 5 356 352 332 319 308 299 300 309 310 313 320 318 330 338 328 314 306 307 303 298
121 164 151 99 108 156 144 129 108 97 90 91 88 92 92 92 92 106 105 96 90 97 100 98 100 87 76 76 57 52 58 49 56 59 63 56 17 335 304 292 305 315 318 335 343 359 11 7 355 343 326 320 316 309
124 136 131 151 171 160 134 107 99 92 96 97 99 98 87 92 102 96 95 86 95 102 103 103 99 98 77 64 71 72 92 80 68 70 84 75 46 344 317 314 345 5 7 360 342 352 360 16 4 346 335 329 328 341
156 146 155 169 151 139 117 101 91 95 101 100 103 103 97 103 95 90 69 81 96 104 106 107 105 105 105 107 101 96 89 82 74 51 51 25 345 353 335 337 353 349 346 348 3 356 351 342 334 323 313 310 303 301
173 165 166 160 156 141 131 117 113 111 102 96 100 103 101 99 97 79 71 88 99 107 111 111 111 109 99 101 102 107 107 110 121 177 2 3 304 312 319 8 19 359 19 15 16 7 348 334 325 315 304 296 296 293
184 182 160 125 129 132 132 125 111 105 104 92 92 93 105 107 100 71 75 93 102 103 106 105 109 106 106 107 108 110 111 112 112 122 128 131 122 122 85 54 21 10 29 56 58 46 22 350 333 318 306 298 292 287
179 164 158 166 153 139 131 129 121 112 107 102 97 85 90 92 92 86 86 101 108 108 109 113 116 115 115 118 117 121 113 115 125 137 161 133 94 62 68 64 54 62 58 72 75 73 67 357 333 331 327 314 318 306
178 164 168 160 148 137 130 131 135 128 126 124 111 100 96 92 90 95 106 115 120 122 122 123 119 124 124 123 112 114 117 117 132 135 105 91 79 85 90 88 84 83 84 88 83 90 99 102 83 45 1 340 329 318
182 170 175 170 158 152 130 126 143 142 131 124 118 123 106 94 92 103 115 128 130 129 128 128 127 133 137 137 137 128 125 127 127 122 117 103 102 95 83 70 80 97 107 108 106 107 106 131 133 123 111 104 7 305
134 135 113 108 106 63 106 108 127 142 132 120 111 111 108 110 105 100 120 125 138 140 138 139 133 132 136 142 140 144 152 120 131 133 130 125 116 116 116 111 102 106 112 111 110 111 120 133 133 136 129 142 158 169
143 153 158 161 151 144 142 141 144 138 130 129 125 122 122 117 107 100 113 132 135 140 141 143 146 131 130 141 138 135 140 137 128 131 136 133 123 125 125 123 121 119 117 120 123 122 128 135 143 147 153 158 160 170